Probability
0 0 0 0 0 0 0 0 0 0 0 0 0 0 0 0 0 0 0 0 0 0 0 0 0 0 0 0 0 0 0 0 0 0 0 0 0 0
0 0 0 0 0 0 0 0 0 0 0 0 0 0 0 0 0 0 0 0 0 0 0 0 0 0 0 0 0 0 0 0 0 0 0 0 0 0
0 0 0 0 0 0 0 0 0 0 0 0 0 0 0 0 0 0 0 0 0 0 0 0 0 0 0 0 0 0 0 0 0 0 0 0 0 0
0 0 0 0 0 0 0 0 0 0 0 0 0 0 0 0 0 0 0 0 0 0 0 0 0 0 0 0 0 0 0 0 0 0 0 0 0 0
0 0 0 0 0 0 0 0 0 0 0 0 0 0 0 0 0 0 0 0 0 0 0 0 0 0 0 0 0 0 0 0 0 0 0 0 0 0
0 0 0 0 0 0 0 0 0 0 0 0 0 0 0 0 0 0 0 0 0 0 0 0 0 0 0 0 0 0 0 0 0 0 0 0 0 0
0 0 0 0 0 0 0 0 0 0 0 0 0 0 0 0 0 0 0 0 0 0 0 0 0 0 0 0 0 0 0 0 0 0 0 0 0 0
0 0 0 0 0 0 0 0 0 0 0 0 0 0 0 0 0 0 0 0 0 0 0 0 0 0 0 0 0 0 0 0 0 0 0 0 0 0
0 0 0 0 0 0 0 0 0 0 0 0 0 0 0 0 0 0 0 0 0 0 0 0 0 0 0 0 0 0 0 0 0 0 0 0 0 0
0 0 0 0 0 0 0 0 0 0 0 0 0 0 0 0 0 0 0 0 0 0 0 0 0 0 0 0 0 0 0 0 0 0 0 0 0 0
0 0 0 0 0 0 0 0 0 0 0 0 0 0 0 0 0 0 0 0 0 0 0 0 0 0 0 0 0 0 0 0 0 0 0 0 0 0
0 0 0 0 0 0 0 0 0 0 0 0 0 0 0 0 0 0 0 0 0 0 0 0 0 0 0 0 0 0 0 0 0 0 0 0 0 0
0 0 0 0 0 0 0 0 0 0 0 0 0 0 0 0 0 0 0 0 0 0 0 0 0 0 0 0 0 0 0 0 0 0 0 0 0 0
0 0 0 0 0 0 0 0 0 0 0 0 0 0 0 0 0 0 0 0 0 0 0 0 0 0 0 0 0 0 0 0 0 0 0 0 0 0
0 0 0 0 0 0 0 0 0 0 0 0 0 0 0 0 0 0 0 0 0 0 0 0 0 0 0 0 0 0 0 0 0 0 0 0 0 0
0 0 0 0 0 0 0 0 0 0 0 0 0 0 0 0 0 0 0 0 0 0 0 0 0 0 0 0 0 0 0 0 0 0 0 0 0 0
0 0 0 0 0 0 0 0 0 0 0 0 0 0 0 0 0 0 0 0 0 0 0 0 0 0 0 0 0 0 0 0 0 0 0 0 0 0
0 0 0 0 0 0 0 0 0 0 0 0 0 0 0 0 0 0 0 0 0 0 0 0 0 0 0 0 0 0 0 0 0 0 0 0 0 0
0 0 0 0 0 0 0 0 0 0 0 0 0 0 0 0 0 0 0 0 0 0 0 0 0 0 0 0 0 0 0 0 0 0 0 0 0 0
0 0 0 0 0 0 0 0 0 0 0 0 0 0 0 0 0 0 0 0 0 0 0 0 0 0 0 0 0 0 0 0 0 0 0 0 0 0
0 0 0 0 0 0 0 0 0 0 0 0 0 0 0 0 0 0 0 0 0 0 0 0 0 0 0 0 0 0 0 0 0 0 0 0 0 0
0 0 0 0 0 0 0 0 0 0 0 0 0 0 0 0 0 0 0 0 0 0 0 0 0 0 0 0 0 0 0 0 0 0 0 0 0 0
0 0 0 0 0 0 0 0 0 0 0 0 0 0 0 0 0 0 0 0 0 0 0 0 0 0 0 0 0 0 0 0 0 0 0 0 0 0
Height
5708 5709 5709 5709 5709 5708 5708 5708 5708 5708 5707 5705 5704 5702 5700 5698 5696 5694 5692 5690 5687 5685 5682 5679 5677 5674 5671 5668 5665 5663 5660 5657 5654 5651 5649 5646 5644 5641
5696 5697 5697 5697 5697 5696 5696 5696 5695 5695 5694 5693 5691 5689 5687 5685 5683 5681 5678 5676 5673 5670 5667 5664 5661 5658 5655 5652 5649 5645 5643 5640 5637 5633 5630 5627 5624 5621
5685 5685 5685 5685 5684 5684 5683 5683 5682 5681 5681 5679 5677 5675 5673 5671 5668 5666 5663 5661 5658 5654 5651 5648 5644 5641 5638 5634 5631 5628 5624 5621 5618 5614 5611 5607 5604 5601
5673 5673 5672 5672 5672 5671 5670 5669 5669 5668 5667 5666 5663 5661 5659 5656 5654 5651 5648 5645 5642 5638 5635 5631 5627 5624 5620 5616 5612 5609 5605 5601 5598 5594 5590 5587 5583 5579
5660 5660 5659 5659 5659 5658 5657 5656 5655 5653 5652 5651 5649 5646 5644 5641 5638 5636 5633 5629 5625 5622 5618 5614 5611 5606 5602 5598 5593 5589 5585 5581 5577 5573 5569 5565 5561 5558
5648 5647 5646 5646 5645 5644 5642 5641 5640 5638 5637 5635 5633 5631 5628 5625 5622 5620 5617 5613 5610 5605 5601 5597 5593 5589 5584 5579 5575 5570 5565 5560 5555 5551 5547 5543 5540 5537
5635 5634 5633 5632 5630 5629 5628 5627 5625 5623 5622 5620 5618 5615 5613 5609 5606 5603 5600 5597 5594 5588 5585 5581 5576 5572 5566 5561 5555 5550 5545 5540 5535 5531 5527 5523 5520 5518
5621 5620 5619 5618 5616 5615 5613 5612 5610 5608 5606 5604 5602 5599 5596 5593 5589 5586 5583 5581 5578 5573 5568 5565 5558 5554 5548 5542 5536 5530 5525 5520 5515 5511 5507 5504 5501 5499
5607 5606 5605 5603 5602 5600 5599 5597 5595 5592 5591 5589 5587 5584 5580 5577 5574 5571 5567 5563 5560 5555 5550 5547 5541 5536 5530 5524 5518 5512 5507 5501 5497 5493 5489 5486 5483 5480
5593 5592 5590 5589 5587 5586 5584 5583 5580 5578 5575 5573 5571 5568 5564 5560 5557 5554 5550 5547 5544 5538 5531 5528 5524 5519 5513 5507 5500 5495 5489 5484 5480 5476 5472 5469 5466 5463
5579 5577 5576 5575 5573 5571 5570 5568 5566 5563 5560 5558 5555 5552 5548 5544 5540 5536 5533 5529 5526 5523 5514 5509 5505 5501 5497 5491 5484 5478 5473 5468 5464 5460 5456 5452 5449 5447
5565 5563 5562 5560 5558 5556 5554 5553 5551 5549 5546 5543 5540 5537 5533 5529 5524 5519 5515 5511 5507 5505 5499 5492 5488 5482 5480 5476 5469 5463 5458 5453 5449 5445 5441 5438 5434 5432
5551 5550 5548 5546 5544 5542 5540 5538 5536 5533 5531 5528 5525 5522 5517 5513 5508 5503 5498 5493 5489 5486 5482 5476 5471 5466 5462 5460 5456 5449 5444 5439 5435 5431 5427 5424 5421 5418
5537 5535 5534 5531 5529 5527 5525 5523 5520 5518 5515 5513 5509 5506 5502 5498 5493 5488 5483 5478 5473 5469 5465 5460 5456 5451 5447 5444 5441 5436 5431 5426 5422 5418 5415 5412 5408 5406
5523 5521 5519 5517 5515 5513 5510 5507 5505 5502 5499 5497 5493 5490 5486 5481 5477 5472 5467 5462 5459 5454 5449 5444 5440 5436 5432 5429 5426 5422 5418 5414 5410 5406 5403 5400 5397 5394
5508 5507 5505 5503 5500 5498 5495 5493 5489 5486 5483 5481 5477 5474 5469 5465 5460 5456 5452 5448 5444 5441 5435 5430 5426 5422 5418 5415 5412 5408 5405 5401 5398 5394 5391 5388 5385 5381
5494 5493 5491 5488 5486 5484 5481 5478 5475 5471 5468 5464 5461 5457 5453 5449 5445 5441 5437 5433 5429 5426 5422 5417 5413 5409 5405 5402 5399 5396 5392 5389 5386 5382 5379 5377 5374 5370
5479 5478 5476 5474 5471 5469 5466 5463 5460 5456 5452 5449 5445 5441 5437 5434 5430 5426 5422 5419 5416 5412 5409 5405 5401 5397 5395 5391 5388 5384 5381 5378 5374 5371 5367 5365 5363 5360
5465 5463 5461 5459 5456 5454 5451 5448 5445 5441 5437 5434 5430 5427 5423 5420 5416 5413 5409 5406 5403 5399 5396 5393 5389 5386 5383 5381 5378 5373 5370 5367 5364 5361 5358 5355 5353 5350
5450 5448 5446 5444 5442 5439 5436 5433 5430 5427 5423 5420 5417 5414 5410 5407 5404 5401 5397 5394 5391 5388 5385 5381 5378 5375 5372 5370 5368 5364 5359 5356 5354 5351 5348 5345 5343 5341
5436 5434 5432 5429 5427 5425 5422 5419 5416 5414 5411 5408 5405 5402 5399 5395 5393 5389 5386 5383 5380 5377 5374 5371 5368 5365 5362 5359 5357 5355 5351 5347 5344 5341 5338 5336 5334 5333
5422 5420 5418 5416 5414 5411 5409 5406 5404 5401 5398 5396 5393 5390 5388 5385 5382 5379 5376 5373 5371 5368 5365 5362 5359 5356 5353 5350 5347 5345 5342 5339 5335 5332 5329 5327 5325 5324
5409 5407 5405 5403 5401 5399 5396 5394 5392 5389 5387 5385 5382 5380 5378 5375 5372 5370 5367 5364 5362 5359 5356 5353 5350 5348 5345 5341 5339 5336 5333 5330 5327 5325 5323 5320 5318 5317
Wind_Speed
45 45 46 47 47 48 48 48 48 48 48 49 49 50 51 51 51 52 54 54 55 55 56 57 57 58 58 58 59 59 60 60 61 61 61 62 63 64
45 45 47 48 48 48 49 49 49 49 49 50 51 51 52 54 54 54 55 55 56 57 57 58 59 60 60 60 61 61 62 62 63 63 64 65 65 66
46 46 47 47 49 49 50 50 50 50 50 50 51 52 53 54 55 55 56 56 57 58 59 60 60 61 62 62 63 63 64 65 65 66 67 67 68 69
47 47 47 48 49 50 50 50 51 51 51 52 53 54 54 55 56 56 57 57 58 59 60 60 61 62 62 63 64 65 66 67 68 69 69 69 69 68
46 47 48 49 49 50 50 51 52 53 53 53 53 54 55 57 57 58 58 58 59 60 61 61 62 63 63 64 65 66 67 69 69 70 70 69 68 66
46 47 48 49 49 51 52 53 53 54 54 54 53 54 55 56 57 58 59 59 60 60 61 62 62 63 64 65 66 68 68 69 69 69 68 67 65 63
47 48 48 49 50 51 52 53 54 54 54 54 54 54 55 56 57 59 59 59 59 60 61 61 62 63 65 66 67 67 68 68 67 66 64 63 61 60
47 48 49 49 50 51 52 53 53 53 54 54 54 55 55 57 58 58 59 59 59 60 61 61 63 64 65 66 66 66 65 64 63 62 61 60 59 58
47 48 49 49 50 51 52 52 52 53 53 54 55 55 56 57 58 58 59 59 60 61 62 62 62 63 64 64 64 63 63 61 60 59 58 57 57 57
48 49 49 49 50 51 51 51 52 52 53 55 55 56 56 57 58 58 58 59 59 60 62 62 62 62 61 61 61 60 59 58 57 56 55 54 54 53
48 49 49 50 50 50 51 51 52 52 53 54 54 55 56 57 59 59 59 60 59 59 60 61 60 59 59 58 57 56 56 55 54 53 52 51 51 50
48 49 49 50 50 51 51 52 52 52 53 53 53 55 56 57 58 59 59 60 59 58 57 58 58 57 56 54 54 54 53 51 51 50 49 49 48 46
49 49 49 49 50 51 52 52 52 52 52 53 54 55 56 57 57 58 59 59 58 57 56 56 55 54 53 51 49 49 48 47 47 46 46 45 45 44
48 48 48 49 49 50 51 52 52 53 53 53 54 55 56 57 57 57 58 57 57 56 55 54 53 52 51 49 47 46 45 45 44 44 43 43 43 42
47 47 48 48 49 50 50 51 52 53 53 54 55 56 56 56 56 56 56 55 54 53 53 52 51 50 50 48 46 44 43 42 42 42 42 42 41 41
48 48 48 48 49 50 50 50 51 53 54 54 55 56 56 55 55 54 54 53 52 50 50 50 50 48 47 46 44 42 42 41 40 40 39 39 39 39
49 49 48 48 48 49 50 51 51 52 53 54 54 54 54 53 52 51 51 50 49 48 47 47 47 46 45 44 42 41 40 39 38 38 38 37 36 35
49 48 48 49 49 49 50 50 51 51 52 52 52 52 51 49 48 48 48 47 46 45 44 43 43 43 42 40 40 39 38 36 36 37 36 34 33 32
48 48 48 48 48 48 49 50 50 50 50 50 49 48 46 45 45 44 44 43 42 42 41 40 40 39 38 36 35 36 36 35 35 34 33 32 31 30
47 47 47 47 47 47 48 48 47 47 47 46 45 43 42 42 41 40 39 39 39 38 37 37 37 37 36 35 33 33 34 34 33 32 31 30 29 28
45 45 45 45 45 45 45 45 45 44 43 42 40 40 39 39 38 37 36 35 35 35 34 34 34 34 34 33 33 31 32 32 32 31 29 27 26 25
43 43 43 43 43 43 43 42 42 40 39 38 37 37 36 35 34 33 33 32 33 33 32 32 32 32 32 32 31 30 30 29 29 28 27 25 24 23
41 41 41 41 41 41 40 39 37 36 35 35 34 33 33 32 32 31 31 31 31 31 31 31 31 30 30 29 28 28 27 27 27 26 25 23 22 21
Wind_Direction
268 269 270 270 271 273 274 275 275 275 276 278 279 281 281 282 283 283 284 284 285 285 286 286 286 286 286 285 285 285 285 285 284 284 284 283 282 281
269 270 271 271 272 272 274 275 275 276 277 279 279 280 281 282 283 283 284 284 285 285 286 286 286 285 285 285 285 285 285 285 285 285 284 283 282 281
269 270 271 272 272 272 274 275 276 277 278 279 280 281 282 283 283 284 284 284 285 286 286 286 286 286 286 286 285 285 285 285 285 285 284 284 283 282
271 271 272 274 274 274 275 276 277 278 279 281 282 282 283 283 284 285 285 285 286 286 287 286 286 286 287 286 286 286 286 286 286 285 285 285 284 283
273 273 274 275 276 275 276 277 278 279 281 282 282 282 283 283 284 285 286 286 286 287 287 287 287 287 287 287 287 287 288 287 287 286 286 285 284 283
275 275 276 276 276 276 277 278 279 279 280 281 282 282 283 283 284 285 286 287 287 287 287 288 288 289 289 289 289 289 289 289 288 287 286 286 284 282
275 275 276 276 276 277 278 279 279 280 281 282 283 283 284 285 286 287 287 288 288 288 288 289 290 290 290 290 290 290 290 290 289 288 286 285 283 282
275 275 276 276 277 278 279 280 281 282 282 282 283 284 286 287 288 288 289 289 289 289 289 290 291 291 291 291 291 290 290 290 289 288 286 285 284 283
275 276 277 278 279 280 281 282 282 283 283 283 284 285 286 287 288 289 289 290 291 291 291 291 291 291 291 291 291 291 290 290 289 288 287 286 285 284
276 277 278 279 280 281 281 282 282 283 283 284 285 285 286 287 287 289 290 291 292 292 292 292 291 291 291 292 292 291 291 290 289 289 288 286 286 285
278 278 279 280 281 281 281 282 283 284 285 285 286 287 287 288 289 290 291 292 292 292 292 293 293 292 293 293 292 292 292 291 290 289 288 288 287 286
279 279 280 281 281 282 282 283 284 285 286 286 287 287 288 289 290 291 292 292 292 292 292 293 293 293 293 293 293 293 292 291 290 289 289 288 288 287
279 280 281 281 282 283 283 284 285 285 286 286 287 289 289 290 290 291 291 292 292 293 293 293 293 294 294 294 293 293 293 291 290 289 289 289 288 287
281 281 282 283 283 284 284 285 286 286 287 288 289 290 290 290 290 290 291 291 292 293 293 293 293 293 294 294 294 293 292 291 290 289 289 289 288 288
282 282 283 283 284 285 286 287 287 288 288 289 289 290 291 291 290 290 290 290 292 292 292 292 293 293 294 295 294 293 292 290 290 289 289 289 289 288
282 282 283 284 285 286 287 287 288 288 288 289 290 290 290 290 290 290 290 290 290 291 291 291 292 293 294 294 295 294 293 291 290 290 290 290 289 289
282 283 284 285 285 286 287 288 288 288 289 289 290 290 290 289 289 289 290 290 290 290 290 291 292 292 293 294 295 294 293 292 292 292 292 292 290 289
283 284 285 285 286 286 287 287 288 288 289 290 290 290 290 289 290 290 290 290 290 291 291 292 292 292 293 295 295 294 293 293 294 294 294 292 290 289
285 285 285 285 286 286 287 288 288 289 289 290 290 290 290 290 290 291 291 291 292 292 292 292 292 293 294 294 294 294 293 293 295 296 294 292 291 290
285 285 285 285 286 287 288 288 288 289 289 290 290 290 291 291 292 292 292 292 292 293 293 292 292 292 293 294 293 293 293 293 294 295 294 291 290 289
285 285 285 285 286 287 288 288 288 289 289 289 289 290 291 292 292 293 293 293 293 294 293 293 293 294 295 296 295 294 294 294 295 295 293 290 289 289
283 284 284 284 285 286 287 288 288 289 288 288 289 290 291 292 293 293 294 294 295 295 295 294 294 295 296 297 296 295 295 294 294 294 293 291 290 289
283 284 284 284 286 287 288 288 288 287 287 288 289 289 291 292 293 293 293 294 296 296 296 295 296 297 298 299 298 297 296 295 294 293 292 290 290 290